Date String (YYYY-MM-DD hh:mm:ss) UTC,Instrument flags,Ambient pressure (hPa),Sample flow (lpm),Bypass flow (lpm),Sample temperature (°C),Ambient temperature (°C),ASC tube jacket temperature (°C),LED temperature (°C),Box temperature (°C),Sample RH (%),Span deviation,Mass concentration (μg/m³),Mass concentration (μg/m³),Mass concentration (μg/m³)
DateTimeUTC,F1_M11,P_M11,Q1_M11,Q2_M11,T1_M11,T2_M11,T3_M11,T4_M11,T5_M11,U1_M11,ZSPAN_M11,X2_M11,X0_M11,X1_M11
2022-03-23 20:00:00,,0826.5,5.00,0.00,22.9,22.2,00.0,31.7,24.7,06.1,0000.0,0000.94,0001.73,0000.54
2022-03-23 20:01:00,,0826.5,4.99,0.00,22.9,22.3,00.0,31.8,24.7,06.1,0000.0,0000.98,0001.83,0000.55
2022-03-23 20:02:00,,0826.5,5.00,0.00,22.9,22.3,00.0,31.8,24.8,06.2,0000.0,0001.00,0001.84,0000.55
2022-03-23 20:03:00,,0826.4,5.00,0.00,22.9,22.3,00.0,31.8,24.8,06.2,0000.0,0001.00,0001.81,0000.57
2022-03-23 20:04:00,,0826.2,4.99,0.00,22.9,22.3,00.0,31.8,24.8,06.2,0000.0,0000.98,0001.67,0000.57
2022-03-23 20:05:00,,0826.1,5.01,0.00,23.0,22.3,00.0,31.8,24.8,06.2,0000.0,0001.01,0001.78,0000.58
2022-03-23 20:06:00,,0826.1,4.99,0.00,23.0,22.3,00.0,31.8,24.8,06.2,0000.0,0001.11,0001.99,0000.59
2022-03-23 20:07:00,,0826.1,5.02,0.00,23.0,22.3,00.0,31.8,24.8,06.1,0000.0,0001.13,0002.06,0000.59
2022-03-23 20:08:00,,0826.1,5.00,0.00,23.0,22.2,00.0,31.8,24.8,06.0,0000.0,0001.17,0002.17,0000.59
2022-03-23 20:09:00,,0826.1,5.00,0.00,23.0,22.2,00.0,31.9,24.8,05.8,0000.0,0001.17,0002.18,0000.60
2022-03-23 20:10:00,,0826.1,4.99,0.00,23.0,22.2,00.0,31.9,24.8,05.8,0000.0,0001.16,0002.58,0000.60
2022-03-23 20:11:00,,0826.1,5.00,0.00,23.0,22.2,00.0,31.9,24.8,05.7,0000.0,0001.16,0002.90,0000.61
2022-03-23 20:12:00,,0826.1,4.99,0.00,23.0,22.3,00.0,31.9,24.8,05.7,0000.0,0001.11,0002.78,0000.60
2022-03-23 20:13:00,,0826.1,5.00,0.00,23.0,22.3,00.0,31.9,24.8,05.8,0000.0,0001.11,0002.84,0000.60
2022-03-23 20:14:00,,0826.1,5.00,0.00,23.0,22.3,00.0,31.9,24.8,05.8,0000.0,0001.13,0002.93,0000.59
2022-03-23 20:15:00,,0826.1,5.00,0.00,23.0,22.3,00.0,31.9,24.8,05.8,0000.0,0001.15,0003.03,0000.58
2022-03-23 20:16:00,,0826.1,5.00,0.00,23.0,22.2,00.0,31.9,24.9,05.8,0000.0,0001.15,0002.99,0000.59
2022-03-23 20:17:00,,0826.1,5.02,0.00,23.0,22.2,00.0,31.9,24.9,05.9,0000.0,0001.10,0003.14,0000.59
2022-03-23 20:18:00,,0826.1,4.99,0.00,23.0,22.2,00.0,31.9,24.8,06.0,0000.0,0001.02,0003.28,0000.59
2022-03-23 20:19:00,,0826.1,5.00,0.00,23.0,22.2,00.0,31.9,24.8,06.0,0000.0,0000.98,0003.12,0000.60
2022-03-23 20:20:00,,0826.0,5.00,0.00,23.0,22.2,00.0,31.9,24.8,06.0,0000.0,0000.94,0003.03,0000.60
2022-03-23 20:21:00,,0825.9,5.00,0.00,23.0,22.2,00.0,32.0,24.8,06.1,0000.0,0000.95,0002.87,0000.61
2022-03-23 20:22:00,,0825.8,5.00,0.00,23.0,22.3,00.0,32.0,24.9,06.2,0000.0,0000.95,0002.29,0000.60
2022-03-23 20:23:00,,0826.0,5.00,0.00,23.1,22.3,00.0,32.0,24.9,06.2,0000.0,0001.03,0002.51,0000.61
2022-03-23 20:24:00,,0825.9,5.00,0.00,23.1,22.3,00.0,32.0,24.9,06.1,0000.0,0001.04,0002.48,0000.61
2022-03-23 20:25:00,,0825.9,5.01,0.00,23.1,22.3,00.0,32.0,24.9,06.1,0000.0,0001.02,0002.40,0000.61
2022-03-23 20:26:00,,0826.0,5.00,0.00,23.1,22.3,00.0,32.0,24.9,05.9,0000.0,0001.01,0002.31,0000.61
2022-03-23 20:27:00,,0826.0,5.00,0.00,23.1,22.3,00.0,32.0,24.9,05.9,0000.0,0000.99,0002.31,0000.60
2022-03-23 20:28:00,,0826.0,5.00,0.00,23.1,22.3,00.0,32.0,24.9,06.0,0000.0,0000.99,0002.30,0000.60
2022-03-23 20:29:00,,0826.0,5.00,0.00,23.1,22.4,00.0,32.0,24.9,06.0,0000.0,0001.04,0001.89,0000.61
2022-03-23 20:30:00,,0826.0,5.00,0.00,23.1,22.4,00.0,32.0,24.9,06.1,0000.0,0001.08,0001.99,0000.62
2022-03-23 20:31:00,,0826.0,5.00,0.00,23.1,22.4,00.0,32.0,24.9,06.2,0000.0,0001.09,0002.07,0000.62
2022-03-23 20:32:00,,0826.0,5.01,0.00,23.1,22.4,00.0,32.0,24.9,06.3,0000.0,0001.09,0002.04,0000.62
2022-03-23 20:33:00,,0826.0,4.99,0.00,23.1,22.4,00.0,32.0,24.9,06.2,0000.0,0001.09,0002.03,0000.62
2022-03-23 20:34:00,,0825.9,4.99,0.00,23.1,22.4,00.0,32.0,24.9,06.2,0000.0,0001.02,0001.84,0000.62
2022-03-23 20:35:00,,0825.9,5.01,0.00,23.1,22.3,00.0,32.0,24.9,06.2,0000.0,0000.99,0001.79,0000.63
2022-03-23 20:36:00,,0826.0,4.99,0.00,23.1,22.3,00.0,32.0,24.9,06.1,0000.0,0000.98,0001.77,0000.63
2022-03-23 20:37:00,,0825.9,5.00,0.00,23.1,22.4,00.0,32.0,24.9,06.1,0000.0,0000.98,0001.75,0000.64
2022-03-23 20:38:00,,0825.9,5.00,0.00,23.1,22.4,00.0,32.1,25.0,06.3,0000.0,0000.96,0001.67,0000.63
2022-03-23 20:39:00,,0825.9,4.99,0.00,23.1,22.4,00.0,32.1,24.9,06.2,0000.0,0000.98,0001.67,0000.63
2022-03-23 20:40:00,,0825.9,5.00,0.00,23.2,22.4,00.0,32.1,25.0,06.1,0000.0,0000.92,0001.55,0000.62
2022-03-23 20:41:00,,0825.7,5.00,0.00,23.2,22.4,00.0,32.1,25.0,06.1,0000.0,0000.87,0001.42,0000.61
2022-03-23 20:42:00,,0825.6,5.01,0.00,23.2,22.4,00.0,32.1,25.0,06.1,0000.0,0000.92,0001.52,0000.61
2022-03-23 20:43:00,,0825.7,5.01,0.00,23.2,22.3,00.0,32.1,24.9,06.0,0000.0,0000.91,0001.57,0000.61
2022-03-23 20:44:00,,0825.7,4.99,0.00,23.1,22.3,00.0,32.1,24.9,05.9,0000.0,0000.98,0001.80,0000.61
2022-03-23 20:45:00,,0825.6,5.00,0.00,23.1,22.2,00.0,32.1,24.9,05.8,0000.0,0001.05,0001.99,0000.61
2022-03-23 20:46:00,,0825.8,5.00,0.00,23.1,22.2,00.0,32.1,24.8,05.7,0000.0,0001.05,0002.00,0000.61
2022-03-23 20:47:00,,0825.8,5.00,0.00,23.1,22.2,00.0,32.1,24.8,05.7,0000.0,0001.08,0002.18,0000.62
2022-03-23 20:48:00,,0825.9,5.01,0.00,23.1,22.2,00.0,32.1,24.9,05.8,0000.0,0001.08,0002.20,0000.61
2022-03-23 20:49:00,,0825.9,5.01,0.00,23.1,22.2,00.0,32.1,24.9,05.9,0000.0,0001.10,0002.27,0000.62
2022-03-23 20:50:00,,0825.9,4.99,0.00,23.1,22.3,00.0,32.1,24.9,05.8,0000.0,0001.07,0002.18,0000.61
2022-03-23 20:51:00,,0825.9,5.00,0.00,23.1,22.3,00.0,32.1,24.9,05.8,0000.0,0001.07,0002.28,0000.61
2022-03-23 20:52:00,,0825.9,5.00,0.00,23.1,22.4,00.0,32.1,25.0,05.9,0000.0,0001.11,0002.60,0000.61
2022-03-23 20:53:00,,0825.8,5.00,0.00,23.2,22.4,00.0,32.1,25.0,05.9,0000.0,0001.07,0002.45,0000.61
2022-03-23 20:54:00,,0825.8,5.00,0.00,23.2,22.4,00.0,32.1,25.0,06.0,0000.0,0001.06,0002.40,0000.60
2022-03-23 20:55:00,,0825.8,5.00,0.00,23.2,22.5,00.0,32.1,25.0,05.9,0000.0,0001.03,0002.27,0000.59
2022-03-23 20:56:00,,0825.7,4.99,0.00,23.2,22.5,00.0,32.1,25.0,06.0,0000.0,0000.95,0002.03,0000.59
2022-03-23 20:57:00,,0825.6,5.00,0.00,23.2,22.5,00.0,32.1,25.0,06.1,0000.0,0000.95,0002.00,0000.58
2022-03-23 20:58:00,,0825.6,4.99,0.00,23.2,22.4,00.0,32.1,25.0,06.1,0000.0,0000.94,0001.90,0000.57
2022-03-23 20:59:00,,0825.7,5.00,0.00,23.2,22.4,00.0,32.2,25.0,06.0,0000.0,0000.94,0001.88,0000.58
